Regional Weather Roundup
Issued by NWS

Home | Current Version | Previous Version | Text Only | Print | Product List | Glossary On
Versions: 1 2 3 4 5 6 7 8 9 10 11 12 13 14 15 16 17 18 19 20 21 22 23 24 25 26 27 28 29 30 31 32 33 34 35 36 37 38 39 40 41 42 43 44 45 46 47 48 49 50
647
ASUS43 KMKX 220218
RWRWI

WISCONSIN REGIONAL WEATHER ROUNDUP
NATIONAL WEATHER SERVICE MILWAUKEE/SULLIVAN WI
900 PM CDT THU MAY 21 2015

NOTE: "FAIR" INDICATES FEW OR NO CLOUDS BELOW 12,000 FEET WITH NO
SIGNIFICANT WEATHER AND/OR OBSTRUCTIONS TO VISIBILITY.

WIZ001-002-006>008-014>016-023>028-220300-
NORTHWEST WISCONSIN

CITY           SKY/WX    TMP DP  RH WIND       PRES   REMARKS
SUPERIOR ARPT  CLEAR     61  28  29 N7        30.03R
ASHLAND        CLEAR     47  42  83 N3        30.03R
HAYWARD        CLEAR     61  27  27 N5        30.02R
SIREN          CLEAR     59  31  33 NW6       30.04R
CUMBERLAND     CLEAR     55  32  41 NW6       30.03R
RICE LAKE      CLEAR     60  33  35 CALM      30.03S
CHETEK         CLEAR     58  39  50 NW5       30.02R
LADYSMITH      CLEAR     54  40  59 CALM      30.03R
EAU CLAIRE     CLEAR     59  36  42 NW3       30.01R
MENOMONIE      CLEAR     64  30  28 NW8       30.02R
NEW RICHMOND   CLEAR     59  33  36 NW7       30.04S
OSCEOLA        CLEAR     61  33  34 NW6       30.06S
$$

WIZ003>005-009-010-017-018-220300-
NORTH CENTRAL WISCONSIN

CITY           SKY/WX    TMP DP  RH WIND       PRES   REMARKS
MANITOWISH WTR CLEAR     54  29  38 N3        30.02S
ARBOR VITAE    CLEAR     52  30  42 CALM      30.03R
WOODRUFF       CLEAR     52  30  42 CALM      30.03R
RHINELANDER    CLEAR     54  27  35 CALM      30.03R
EAGLE RIVER    CLEAR     49  28  43 CALM      30.02R
LAND O LAKES   CLEAR     46  31  55 CALM      30.03R
PHILLIPS       CLEAR     51  36  55 CALM      30.02R
TOMAHAWK       CLEAR     51  31  46 CALM      30.03R
MEDFORD        CLEAR     52  33  48 CALM      30.02R
MERRILL        CLEAR     53  30  41 N3        30.03R
$$

WIZ029-030-035-036-043>047-220300-
CENTRAL WISCONSIN

CITY           SKY/WX    TMP DP  RH WIND       PRES   REMARKS
WAUSAU         CLEAR     58  27  30 N3        30.00R
MOSINEE        CLEAR     57  27  30 N9G16     30.02R
MARSHFIELD     CLEAR     59  30  33 NE6       30.01R
STEVENS POINT  CLEAR     58  28  31 N6        30.01R
WAUPACA        CLEAR     60  42  50 NE8       30.00R
WAUTOMA        CLEAR     64  36  35 N9        29.98R
WISC RAPIDS    CLEAR     62  29  28 N9        30.01R
CAMP DOUGLAS   CLEAR     54  39  58 NW5       29.98R
$$

WIZ011>013-019>022-031-037>040-048>050-220300-
NORTHEAST WISCONSIN

CITY           SKY/WX    TMP DP  RH WIND       PRES   REMARKS
ANTIGO         CLEAR     53  28  38 N6        30.03R
SHAWANO        CLEAR     54  38  55 E6        30.03R
OCONTO         CLEAR     51  37  60 CALM      30.01R
STURGEON BAY   CLEAR     48  27  43 E9        30.03R
GREEN BAY      CLEAR     53  35  50 E12       30.01R
MANITOWOC      MOCLDY    50  33  52 E5        30.02R
APPLETON       PTCLDY    55  34  44 E10       30.01R
CLINTONVILLE   PTCLDY    52  37  58 NE6       30.02R
OSHKOSH        PTCLDY    55  41  59 E15       29.97R
$$

WIZ032>034-041-042-053>061-220300-
SOUTHWEST WISCONSIN

CITY           SKY/WX    TMP DP  RH WIND       PRES   REMARKS
LA CROSSE      CLEAR     64  43  46 W5        29.99R
SPARTA         CLEAR     57  39  51 CALM      30.01R
VIROQUA        CLEAR     61  38  41 W6        30.01R
BOSCOBEL       CLEAR     63  35  35 CALM      30.00R
PRAIRIE DU CHI CLEAR     64  32  30 CALM      30.01R
PLATTEVILLE    CLEAR     61  37  40 W6        30.00R
$$

WIZ056-057-062-063-064-067-068-220300-
SOUTH CENTRAL WISCONSIN

CITY           SKY/WX    TMP DP  RH WIND       PRES   REMARKS
REEDSBURG      CLEAR     63  37  38 W3        29.97S
BARABOO/DELLS  CLEAR     62  33  33 W3        29.97R
LONE ROCK      CLEAR     64  37  36 NW8       29.99R
MINERAL POINT  CLEAR     63  34  34 W5        30.00R
MADISON        MOCLDY    64  44  48 VRB3      29.97R
MIDDLETON      MOCLDY    63  41  44 W5        29.98R
WATERTOWN      CLOUDY    64  42  45 W3        29.96R
MONROE         CLEAR     59  45  58 SW10      29.99S
JANESVILLE     CLEAR     61  43  51 SW8       29.98S
$$

WIZ051-052-058>065-066-070>072-220300-
SOUTHEAST WISCONSIN

CITY           SKY/WX    TMP DP  RH WIND       PRES   REMARKS
MILWAUKEE      MOCLDY    66  37  34 SW10      29.96R
WAUKESHA       PTCLDY    63  37  39 SW8       29.97R
MILWAUKEE/TIMM LGT RAIN  64  36  34 N15       29.98R
RACINE         CLEAR     63  40  42 SW10      29.98R
BURLINGTON     CLEAR     59  40  49 SW10      29.98S
KENOSHA        CLEAR     61  41  47 SW10      29.98S
FOND DU LAC    MOCLDY    60  40  47 E10       29.97R
SHEBOYGAN      LGT RAIN  48  39  71 NE16      30.00R
WEST BEND      MOCLDY    61  41  48 NE12      29.99R
JUNEAU         LGT RAIN  62  41  45 SW12      29.97S
$$

LSZ147-162-220300-
LAKE SUPERIOR

STATION/POSITION TIME  TEMP    WIND        PRES    WAVE
                       AIR SEA DIR/SP/G            HT/PER
                 (UTC) (F)     (DEG/KT/KT) (MB)    (FT/S)
W MID LAKE BUOY  0150   42 36  240/  4/  4   N/A     0
DEVILS ISLAND    0200   54      20/  2/  3   N/A
PORT WING        0100   60      CALM  /  3   N/A
SAXON HARBOR     0140   52        CALM       N/A
$$

LMZ867-665-643>646-220300-
LAKE MICHIGAN

STATION/POSITION TIME  TEMP    WIND        PRES    WAVE
                       AIR SEA DIR/SP/G            HT/PER
                 (UTC) (F)     (DEG/KT/KT) (MB)    (FT/S)
CHAMBERS ISLAND  0100   53      60/ 10/ 15   N/A
N MID LAKE BUOY  0150   43 36   CALM  /  2   N/A     2/ 4
NORTHPORT PIER   0100   50      80/  5/  7   N/A
SISTER BAY       0117   52     110/  3/  6   N/A
KEWAUNEE LAKESHO 0100           60/  8/ 13   N/A
SHEBOYGAN LAKESH 0200           10/ 18/ 20   N/A
PORT WASHINGTON  0200   58      20/ 10/ 20   N/A
ATWATER BUOY     0100   63 44  240/  8/ 10   N/A
MILWAUKEE LAKESH 0100   69     250/ 10/ 14   N/A
S MID LAKE BUOY  0150   45 38  200/ 14/ 16   N/A     2/ 4
KENOSHA   LAKESH 0200   65     230/  7/ 14   N/A
$$

TC  - TEMPERATURE IN CELSIUS
VSB - VISIBILITY IN STATUTE MILES
WCI - WIND CHILL INDEX
HX  - HEAT INDEX




USA.gov is the U.S. government's official web portal to all federal, state and local government web resources and services.